"Pseudo-MPEC" for ZTF10F4

Created 2026 Jul 26 18:35:21 UT using Find_Orb

Click here for an explanation of pseudo-MPECs

 
 Astrometry: 
     ZTF10F4*0C2026 07 25.37216422 40 52.354+25 42 16.18   ~7PE5 18.50gUNEOCPI41
     ZTF10F4 0C2026 07 25.37251122 40 50.471+25 42 13.20   ~7PE5 18.50gUNEOCPI41
     ZTF10F4 0C2026 07 25.41667222 36 53.448+25 36 50.63   ~7PE5 17.46RUNEOCPI41
     ZTF10F4 0C2026 07 25.41702022 36 51.727+25 36 48.17   ~7PE5 17.46RUNEOCPI41

Station data:
(I41) Palomar Mountain--ZTF  (N33.357336 W116.859780)  US/California.
   Observers B. T. Bolin, Z. T. F. Collaboration. Measurers B. T. Bolin,
   Z.-Y. Lin, F. J. Masci. 1.2-m f/2.4 Schmidt.

Orbital elements:  ZTF10F4
   Perihelion 2026 May 18.684518 +/- 58 TT = 16:25:42.3 (JD 2461179.184518)
Epoch 2026 Jul 25.0 TT = JDT 2461246.5   Earth MOID: 0.0275   Ve: 0.0901
M 163.900085882 +/- 90              Me: 0.0804                   AutoNEOCP
n   2.434805198 +/- 1.13            Peri.  359.405070 +/- 70
a   0.547217405 +/- 0.169           Node   121.846776 +/- 110
e   0.91140171 +/- 0.21             Incl.  145.475828 +/- 60
P   0.405/147.853d         H 22.64  G  0.15   U 12.8  SR
q 0.048482525 +/- 0.32    Q 1.045952285 +/- 9.62          (J2000 ecliptic)
From 4 observations 2026 July 25 (64.6 min); mean residual 0".62
Residuals in arcseconds: 
260725 I41  .32+  .30+    260725 I41  1.2-  .12-    
260725 I41  .31-  .30-    260725 I41  1.2+  .12+    

Ephemerides (geocentric):
Date (UTC) HH   RA             Dec           delta  r     elong  mag " sig PA
---- --------  ------------   ------------  ------ ------ -----  --- --------
2026 07 26 19  19 48 39.159   +15 26 13.45  .03374 1.0431 144.2 16.8  37d 112
2026 07 26 20  19 42 51.116   +14 52 41.04  .03373 1.0431 144.3 16.8  38d 112
2026 07 26 21  19 37 05.036   +14 18 36.76  .03375 1.0432 144.5 16.8  38d 112
2026 07 26 22  19 31 21.337   +13 44 05.00  .03379 1.0432 144.5 16.8  38d 112
2026 07 26 23  19 25 40.420   +13 09 10.28  .03386 1.0433 144.5 16.8  39d 112
2026 07 27 00  19 20 02.666   +12 33 57.15  .03395 1.0433 144.4 16.8  39d 112
2026 07 27 01  19 14 28.433   +11 58 30.25  .03406 1.0434 144.3 16.8  39d 112
2026 07 27 02  19 08 58.055   +11 22 54.14  .03419 1.0434 144.1 16.8  40d 112
2026 07 27 03  19 03 31.841   +10 47 13.34  .03435 1.0435 143.9 16.9  40d 112
2026 07 27 04  18 58 10.074   +10 11 32.26  .03453 1.0435 143.6 16.9  40d 112
2026 07 27 05  18 52 53.009   +09 35 55.17  .03473 1.0436 143.3 16.9  41d 112
2026 07 27 06  18 47 40.874   +09 00 26.16  .03495 1.0436 143.0 16.9  41d 112
2026 07 27 07  18 42 33.869   +08 25 09.09  .03519 1.0436 142.5 16.9  41d 112
2026 07 27 08  18 37 32.168   +07 50 07.62  .03546 1.0437 142.1 17.0  41d 111
2026 07 27 09  18 32 35.918   +07 15 25.14  .03574 1.0437 141.6 17.0  41d 111
2026 07 27 10  18 27 45.242   +06 41 04.79  .03604 1.0438 141.1 17.0  41d 111
2026 07 27 11  18 23 00.235   +06 07 09.42  .03637 1.0438 140.6 17.1  42d 111
2026 07 27 12  18 18 20.972   +05 33 41.62  .03671 1.0439 140.0 17.1  42d 111
2026 07 27 13  18 13 47.506   +05 00 43.69  .03707 1.0439 139.4 17.1  42d 111
2026 07 27 14  18 09 19.868   +04 28 17.66  .03744 1.0439 138.9 17.2  42d 111
2026 07 27 15  18 04 58.070   +03 56 25.29  .03784 1.0440 138.3 17.2  42d 111
2026 07 27 16  18 00 42.107   +03 25 08.09  .03825 1.0440 137.6 17.3  42d 111
2026 07 27 17  17 56 31.959   +02 54 27.30  .03867 1.0441 137.0 17.3  42d 111
2026 07 27 18  17 52 27.590   +02 24 23.96  .03911 1.0441 136.4 17.3  42d 111
2026 07 27 19  17 48 28.952   +01 54 58.85  .03957 1.0442 135.8 17.4  42d 111
2026 07 27 20  17 44 35.984   +01 26 12.58  .04004 1.0442 135.1 17.4  42d 111
2026 07 27 21  17 40 48.618   +00 58 05.55  .04053 1.0442 134.5 17.5  42d 111
2026 07 27 22  17 37 06.773   +00 30 38.00  .04103 1.0443 133.8 17.5  43d 111
2026 07 27 23  17 33 30.362   +00 03 49.99  .04154 1.0443 133.2 17.5  43d 111
2026 07 28 00  17 29 59.293   -00 22 18.54  .04206 1.0443 132.6 17.6  43d 111
2026 07 28 01  17 26 33.465   -00 47 47.78  .04260 1.0444 132.0 17.6  43d 111
2026 07 28 02  17 23 12.777   -01 12 38.04  .04314 1.0444 131.4 17.7  43d 111
2026 07 28 03  17 19 57.120   -01 36 49.73  .04370 1.0445 130.7 17.7  43d 111
2026 07 28 04  17 16 46.384   -02 00 23.34  .04427 1.0445 130.1 17.8  43d 111
2026 07 28 05  17 13 40.456   -02 23 19.44  .04485 1.0445 129.5 17.8  43d 111
2026 07 28 06  17 10 39.225   -02 45 38.65  .04544 1.0446 129.0 17.9  43d 111
2026 07 28 07  17 07 42.574   -03 07 21.66  .04604 1.0446 128.4 17.9  43d 111
2026 07 28 08  17 04 50.388   -03 28 29.20  .04665 1.0446 127.8 17.9  43d 111
2026 07 28 09  17 02 02.554   -03 49 02.03  .04727 1.0447 127.2 18.0  43d 111
2026 07 28 10  16 59 18.956   -04 09 00.94  .04789 1.0447 126.7 18.0  43d 111
2026 07 28 11  16 56 39.482   -04 28 26.74  .04853 1.0447 126.1 18.1  43d 111
2026 07 28 12  16 54 04.018   -04 47 20.26  .04917 1.0448 125.6 18.1  43d 111
2026 07 28 13  16 51 32.455   -05 05 42.33  .04982 1.0448 125.1 18.2  43d 111
2026 07 28 14  16 49 04.682   -05 23 33.80  .05048 1.0448 124.6 18.2  42d 111
2026 07 28 15  16 46 40.594   -05 40 55.50  .05114 1.0448 124.1 18.2  42d 111
2026 07 28 16  16 44 20.084   -05 57 48.28  .05181 1.0449 123.6 18.3  42d 111
2026 07 28 17  16 42 03.049   -06 14 12.96  .05249 1.0449 123.1 18.3  42d 111
2026 07 28 18  16 39 49.389   -06 30 10.38  .05317 1.0449 122.6 18.4  42d 111